STARLINK-11488, 62222

Orbit data source: Space-Track

STARLINK-11488, 62222 is a payload satellite owned by SpaceX/Seattle (US) in LEO that was launched on Thu, 05 Dec 2024 UTC via an FALCON 9 launch vehicle from the Air Force Western Test Range (AFWTR). Payload-class satellites include a variety of spacecraft equipped with specific instruments for various scientific and technological missions. These include communications satellites like Starlink; space stations such as the ISS; scientific satellites like the Hubble; Earth observation satellites from companies like Planet Labs, Umbra, and HawkEye 360; GPS; miniature CubeSats for education and research; and military/defense satellites.

Loading next visibility...
Identifier
62222, 2024-231E
Orbit
LEO
Country
Flag of USUS
Related business
Manufacturer
SpaceX/Seattle
Mission
Operational Commercial Communications
Bus & Motor
STARLINK V2MD, Unknown motor
Mass
960 kg wet, ~910 kg dry
Launch date (UTC)
2024-12-05 (11 months ago)
Launch vehicle
FALCON 9
Launch site
Air Force Western Test Range (AFWTR)
Object type
Payload
Rocket body
Debris
Shape & HBR
Box + 2 Pan, 18.1 m
Radar Cross Section
36.964 m², Large (>1 m²)

Expand to show TLE details & history
Last TLE update: 8 hours ago

TLE from 8 hours ago
0 STARLINK-11488
1 62222U 24231E   25294.91499130  .00109341  00000-0  89429-3 0  9997
2 62222  53.1567  65.5022 0001009  55.8943 304.2170 15.69743017 51610
Epoch: 2025-10-21T21:57Z
TLE epoch observation values (Epoch: 2025-10-21T21:57:35.248Z)
Latitude
-0.00006°
Longitude
65.50919°
Altitude
360.165 km
Speed
7.695 km/s
True Right ascension
04h 22m 00s
True Declination
0° 00' 00"
Sunlit
Object was in full shadow at epoch
Visualization orbit readout
Latitude
Unknown
Longitude
Unknown
Altitude
Unknown
Speed
Unknown
Apparent Right ascension
Unknown
Apparent Declination
Unknown
Sunlit
N/A
Visualization observer readout
Local Sidereal Time
01:17:49
Azimuth
Unknown
Elevation
Unknown
Doppler factor
Unknown
Orbital elements
Apogee altitude
360.573 km
Perigee altitude
359.214 km
Semi-major axis
6,738.03 km
Eccentricity
0.0001
Inclination
53.1567°
RAAN
65.5022°
Arg. of periapsis
55.8943°
True anomaly
304.20744°
Mean anomaly
304.217°
Eccentric anomaly
304.21222°
Mean motion
3.92413 °/min
Orbital period
91.74 mins
BSTAR
0.00089429
Loading maneuver chart data...
Computing Atmospheric mass density...
Loading historical data...
Loading historical data...
Loading historical data...
Loading historical data...
Loading historical data...
Loading historical data...
Loading historical data...

Documentation

Showing up to 5 results
|